DECAYED

STARLINK-3824, 52360 (Decayed)

Orbit data source: Space-Track

STARLINK-3824, 52360 was a payload satellite owned by SpaceX/Seattle (US) in LEO that was launched on Fri, 29 Apr 2022 UTC via an FALCON 9 launch vehicle from the Air Force Eastern Test Range (AFETR). Payload-class satellites include a variety of spacecraft equipped with specific instruments for various scientific and technological missions. These include communications satellites like Starlink; space stations such as the ISS; scientific satellites like the Hubble; Earth observation satellites from companies like Planet Labs, Umbra, and HawkEye 360; GPS; miniature CubeSats for education and research; and military/defense satellites.

Not visible in the next 10 days
Identifier
52360, 2022-045AF
Orbit
Decayed
Country
Flag of USUS
Related business
Manufacturer
SpaceX/Seattle
Mission
Decayed Commercial Communications
Bus & Motor
STARLINK, Unknown motor
Mass
297 kg wet, ~275 kg dry
Launch date (UTC)
2022-04-29 (4 years ago)
Launch vehicle
FALCON 9
Launch site
Air Force Eastern Test Range (AFETR)
Object type
Payload
Rocket body
Debris
Shape & HBR
Box + 1 Pan, 10.1 m
Radar Cross Section
11.087 m², Large (>1 m²)

Expand to show TLE details & history
Last TLE update: 9 months ago

TLE from 9 months ago
0 STARLINK-3824
1 52360U 22045AF  25219.30064193  .02462109  12034-4  59750-3 0  9991
2 52360  53.2036  29.3603 0007548 281.2837  78.7359 16.28572378184130
Epoch: 2025-08-07T07:12Z
TLE epoch observation values (Epoch: 2025-08-07T07:12:55.462Z)
Latitude
0.00001°
Longitude
-34.93781°
Altitude
196.356 km
Speed
7.79 km/s
True Right ascension
01h 57m 26s
True Declination
0° 00' 00"
Sunlit
Object was in full shadow at epoch
Visualization orbit readout
Latitude
Unknown
Longitude
Unknown
Altitude
Unknown
Speed
Unknown
Apparent Right ascension
Unknown
Apparent Declination
Unknown
Sunlit
N/A
Visualization observer readout
Local Sidereal Time
11:14:43
Azimuth
Unknown
Elevation
Unknown
Doppler factor
Unknown
Orbital elements
Apogee altitude
201.601 km
Perigee altitude
191.676 km
Semi-major axis
6,574.776 km
Eccentricity
0.00075
Inclination
53.2036°
RAAN
29.3603°
Arg. of periapsis
281.2837°
True anomaly
78.82074°
Mean anomaly
78.7359°
Eccentric anomaly
78.77832°
Mean motion
4.07119 °/min
Orbital period
88.43 mins
BSTAR
0.0005975
Loading maneuver chart data...
Computing Atmospheric mass density...

Documentation

Showing up to 5 results
|